www.pogodaiklimat.ru

Погода и климат >> Архив погоды >> Канада >> Rankin Inlet


ПОГОДА в Rankin Inlet

  • Прогноз погоды в Rankin Inlet
  • Монитор погоды в Rankin Inlet
  • Климат города

АРХИВ ПОГОДЫ в Rankin Inlet

Время (UTC), дата Ветер
(напр.,м/с)
 
Видим.   Явления Облачность Т
(С)
Тd
(С)
f
(%)
Тe
(С)
Тes
(С)
Комфортность P
(гПа)
Po
(гПа)
Тmin
(С)
Tmax
(С)
R
(мм)
R24
(мм)
S
(см)
18 10.12 Ю 7 16 км ледяные иглы {снег} 9/4 200 м
[Sc Ci fib]
-14.3 -16.3 85 -24 -24 1015.2 1010.9 -19.2 -14.0 0.0 23
21 10.12 Ю 7 16 км 9/9 200 м
[]
-15.4 -17.6 83 -26 -26 1014.9 1010.6
00 11.12 Ю 9 9000 м ледяные иглы {снег} 9/9 200 м
[St]
-13.6 -15.7 84 -24 -24 1013.2 1008.9 -16.4 -13.6 0.0 23
03 11.12 Ю 9 3200 м 9/9 200 м
[]
-11.9 -13.8 86 -23 -23 1010.4 1006.1
06 11.12 2000 м слабый снег н/о -12.0 -13.9 86 -22 -22 1008.3 1004.0 -16.4 -11.8 0.6 52
09 11.12 Ю 12 1600 м 5/5 100 м
[]
-12.2 -14.1 86 -24 -24 1005.3 1001.0
12 11.12 1600 м слабый снег н/о -11.6 -13.5 86 -24 -24 1002.7 998.4 -13.6 -11.8 0.4 26
15 11.12 Ю 8 1200 м 8/8 200 м
[]
-11.8 -13.7 86 -22 -22 1001.5 997.3
18 11.12 Ю 5 4800 м слабый снег {метель} 10/4 200 м
[Sc Ac trans]
-11.3 -13.1 87 -19 -19 999.7 995.5 -15.6 -11.3 0.0 26
21 11.12 ЮЗ 8 16 км 10/10 200 м
[]
-12.1 -14.3 84 -22 -22 998.8 994.6
00 12.12 ЮЗ 6 16 км ледяные иглы {снег} 9/0
[Ac trans]
-12.7 -14.9 84 -21 -21 998.3 994.1 -12.8 -11.1 0.0 26
03 12.12 ЮЗ 2 16 км 8/8 300 м
[]
-13.5 -15.6 84 -18 -18 997.5 993.3
06 12.12 Ю 2 24 км ледяные иглы {снег} 9/9 200 м
[Sc]
-13.2 -15.3 84 -18 -18 997.4 993.2 -14.2 -11.1 0.0 102
09 12.12 В 2 12 км 10/10 50 м
[]
-13.1 -14.7 88 -17 -17 997.7 993.5
12 12.12 В 4 16 км в посл. час снег {туман} 5/3 50 м
[Frnb]
-13.6 -15.5 86 -21 -21 997.4 993.2 -14.2 -11.1 0.0 26
15 12.12 ЮВ 3 16 км 10/10 100 м
[]
-10.7 -12.3 88 -17 -17 997.7 993.5
18 12.12 ЮВ 2 2400 м слабый снег 10/10 50 м
[St]
-9.1 -10.6 89 -14 -14 997.2 993.0 -14.3 -9.1 0.0 26
21 12.12 ЮВ 5 400 м н/о -8.4 -9.8 90 -16 -16 997.7 993.5
00 13.12 ЮВ 4 6000 м дымка {туман, снег} 10/10 100 м
[St]
-10.4 -12.0 88 -18 -18 998.1 993.9 -14.3 -8.3 0.0 26
03 13.12 В 5 24 км 6/6 600 м
[]
-11.8 -13.6 86 -20 -20 997.3 993.1
06 13.12 ЮВ 5 24 км 9/9 300 м
[Sc]
-9.5 -11.0 89 -17 -17 996.6 992.4 -14.3 -8.3
09 13.12 ЮВ 6 24 км 10/10 100 м
[]
-8.7 -10.1 90 -17 -17 995.8 991.6
12 13.12 ЮВ 5 24 км слабый снег 10/10 200 м
[Sc]
-8.4 -9.8 90 -16 -16 994.9 990.7 -12.1 -8.3 0.0 26
15 13.12 Ю 6 12 км 10/10 100 м
[]
-9.2 -10.6 90 -17 -17 993.9 989.7
18 13.12 ЮВ 6 12 км слабый снег 10/10 100 м
[St]
-9.8 -11.3 89 -18 -18 992.2 988.0 -12.1 -8.3 0.0 26
21 13.12 ЮВ 5 1600 м 10/10 300 м
[]
-8.4 -9.7 90 -16 -16 991.0 986.8
00 14.12 Ю 4 12 км слабый снег {туман} 10/10 100 м
[St]
-7.6 -8.9 90 -15 -15 990.3 986.2 -9.8 -7.5 0.0 26
03 14.12 ЮВ 3 400 м н/о -9.2 -10.7 89 -15 -15 989.3 985.1
06 14.12 Ю 4 4800 м слабый снег {туман} 10/10 100 м
[Sc]
-7.1 -8.3 91 -14 -14 988.2 984.1 -11.2 -6.8 1 17
09 14.12 З 8 6000 м 10/10 200 м
[]
-8.6 -10.0 90 -18 -18 988.7 984.6
12 14.12 З 8 6000 м слабый снег 10/10 100 м
[Sc]
-11.1 -12.8 87 -21 -21 990.3 986.1 -11.2 -6.8 0.6 27
15 14.12 ЮЗ 8 16 км 9/9 100 м
[]
-11.9 -13.7 86 -22 -22 991.4 987.2
18 14.12 З 8 12 км слабый снег 10/10 300 м
[St]
-12.2 -14.1 86 -22 -22 991.8 987.6 -12.5 -7.1 0.0 27
21 14.12 З 6 12 км 10/10 600 м
[]
-11.9 -14.2 83 -21 -21 992.8 988.6
00 15.12 З 8 4800 м слабый снег 10/10 600 м
[Sc]
-13.0 -15.3 83 -23 -23 994.2 990.0 -13.0 -11.1 0.2 27
03 15.12 З 9 9000 м 9/9 300 м
[]
-14.9 -17.4 81 -26 -26 995.5 991.3
06 15.12 З 8 16 км ледяные иглы {снег} 9/6 300 м
[Sc Ac As]
-16.6 -19.4 79 -28 -28 996.1 991.9 -17.0 -7.1 0.2 161
09 15.12 З 6 24 км 4/4 1500 м
[]
-18.4 -21.2 79 -29 -29 998.2 993.9
12 15.12 З 6 16 км ледяные иглы {снег} 4/1 1500 м
[Sc Ac As]
-17.1 -19.7 80 -27 -27 1000.0 995.7 -18.4 -7.1 0.0 27
15 15.12 З 6 24 км ясно -20.9 -23.9 77 -32 -32 опасность
обморожения
1001.5 997.2
18 15.12 З 5 24 км ледяные иглы {снег} 4/0
[Ci sp]
-22.5 -25.8 74 -33 -33 опасность
обморожения
1002.9 998.6 -22.9 -15.4 0.0 27
21 15.12 0 24 км 4/0
[]
-23.7 -27.0 74 1004.0 999.6
00 16.12 С 6 24 км ледяные иглы {снег} 3/0
[Ci fib]
-24.7 -28.2 73 -37 -37 опасность
обморожения
1003.3 998.9 -25.2 -17.1 0.0 27
03 16.12 СЗ 4 24 км 3/0
[]
-23.7 -27.1 73 -34 -34 опасность
обморожения
1004.4 1000.0
06 16.12 С 6 9000 м слабый снег 9/9 100 м
[St]
-19.9 -22.9 77 -30 -30 1003.6 999.2 -25.2 -15.4 0.0 70
09 16.12 С 7 9000 м 10/10 100 м
[]
-15.6 -18.1 81 -26 -26 1003.9 999.6
12 16.12 С 12 4800 м слабый снег 10/10 100 м
[Sc]
-14.4 -16.6 83 -27 -27 1003.5 999.2 -24.8 -15.4 0.0 27
15 16.12 С 13 4800 м 5/5 300 м
[]
-14.4 -16.6 83 -27 -27 1003.7 999.4
18 16.12 С 12 8000 м ледяные иглы {снег} 5/0
[Ci fib]
-19.1 -21.9 78 -34 -34 опасность
обморожения
1006.0 1001.6 -25.2 -14.1 0.0 27
21 16.12 С 11 16 км 9/9 300 м
[]
-16.6 -19.2 80 -30 -30 1008.0 1003.7
00 17.12 11 1600 м ледяные иглы {снег} н/о -18.4 -21.0 80 -33 -33 опасность
обморожения
1010.8 1006.5 -19.9 -14.1 0.0 27
03 17.12 С 13 800 м 4/4 50 м
[]
-20.4 -23.3 78 -36 -36 опасность
обморожения
1011.8 1007.4
06 17.12 С 16 400 м ледяные иглы {снег, туман} 3/3 1000 м
[]
-21.9 -24.8 77 -39 -39 опасность
обморожения
1012.4 1008.0 -21.9 -14.1 0.0 52
09 17.12 С 11 800 м 1/1 1000 м
[]
-25.2 -28.5 74 -41 -41 опасность
обморожения
1014.8 1010.4
12 17.12 СЗ 13 400 м ледяные иглы {снег, метель} ясно -23.7 -26.9 75 -40 -40 опасность
обморожения
1016.0 1011.6 -25.3 -14.1 0.0 27
15 17.12 С 11 800 м ясно -23.8 -27.0 75 -39 -39 опасность
обморожения
1015.4 1011.0

 

Местоположение метеостанции Rankin Inlet (Канада): широта 62.82 долгота -92.11 высота над уровнем моря 31 м.

В архиве по умолчанию представлена погода в Rankin Inlet за последнюю неделю. Архивные данные за месяц целиком и за предыдущие месяцы, начиная с января 2011 года, Вы можете получить, выбрав интересующий диапазон дат из раскрывающегося списка и нажав кнопку "Ввод!".


*Определитесь, кто Вы:
робот инопланетянин человек

Внимание! Время в таблицах - всемирное. Для получения местного времени необходимо прибавить поправку, которая в Rankin Inlet равна -6 ч.

Смотрите также архив погоды в соседних городах и на ближайших метеорологических станциях:

Погода в Arviat Climate (Канада) (217 км)
Погода в Arviat (Канада) (217 км)
Погода в Arviat Airport (Канада) (218 км)
Погода в Baker Lake Climate (Канада) (255 км)
Погода в Baker Lake Airport (Канада) (256 км)
Погода в Wager Bay (Канада) (364 км)
Погода в Back River MAPS (Канада) (419 км)
Погода в Coral Harbour Arpt (Канада) (460 км)
Погода в Churchill Climate (Канада) (468 км)
Погода в Dubawnt Lake (Канада) (486 км)

Пояснения к столбцам:

Ветер - указаны скорость ветра в м/с - средняя за 10 мин, порывы в срок и между сроками (в фигурных скобках) и направление, откуда дует ветер: С - северный, СВ - северо-восточный, В - восточный, ЮВ - юго-восточный, Ю - южный, ЮЗ - юго-западный, З - западный, СЗ - северо-западный.
Видимость - горизонтальная дальность видимости в метрах или километрах. При видимости от 1 до 10 км при отсутствии осадков обычно наблюдается дымка, при ухудшении видимости до 1 км и менее - туман. В сухую погоду видимость может ухудшаться дымом, пылью или мглою.
Явления - указаны атмосферные явления, наблюдавшиеся в срок или в последний час перед сроком; фигурными скобками обозначены явления, наблюдавшиеся между сроками (за 1-3 часа до срока); квадратными скобками обозначены град или гололедные отложения с указанием их диаметра в мм.
Облачность - указаны через наклонную черту общая и нижняя облачность в баллах и высота нижней границы облаков в метрах; квадратными скобками обозначены формы облаков: Ci - перистые, Cs - перисто-слоистые, Cc - перисто-кучевые, Ac - высококучевые, As - высокослоистые, Sc - слоисто-кучевые, Ns - слоисто-дождевые, Cu - кучевые, Cb - кучево-дождевые. Подробнее классификацию облаков см. в Атласе облаков (PDF).
T - Температура воздуха - температура, измеренная на высоте 2 м над землей.
Td - Температура точки росы - температура, при понижении до которой содержащийся в воздухе водяной пар достигнет насыщения.
f - Относительная влажность воздуха - влажноcть воздуха, измеренная на высоте 2 м над землей.
Te - Эффективная температура - температура, которую ощущает одетый по сезону человек в тени. Характеристика душности погоды. При расчете учитывается влияние влажности воздуха и скорости ветра на теплоощущения человека.
Tes - Эффективная температура на солнце - температура, которую ощущает человек, с поправкой на солнечный нагрев. Характеристика знойности погоды. Зависит от высоты солнца над горизонтом, облачности и скорости ветра. Ночью, в пасмурную погоду, а также при ветре 12 м/с и более поправка равна нулю.
P - Атмосферное давление - приведенное к уровню моря атмосферное давление.
Po - Атмосферное давление - измеренное на уровне метеостанции атмосферное давление.
Tmin - Минимальная температура - минимум температуры воздуха на высоте 2 м над землей.
Tmax - Максимальная температура - максимум температуры воздуха на высоте 2 м над землей.
R - Количество осадков - Количество выпавших осадков за период времени, мм. При наведении курсора мыши на число - период времени, за который выпало указанное количество осадков.
R24 - Количество осадков - Количество выпавших осадков за 24 часа, мм.
S - Снежный покров - Высота снежного покрова, см. При наведении курсора мыши на число - состояние снежного покрова и степень покрытия местности в баллах.